DAL1197 KSLC-KLAX

Flight info

Callsign DAL1197
Flight time 1h 22m
Altitude 36000
Route ZIONZ1 EHK LAKRR HAKMN ANJLL4
Aircraft A21N/M-SDE3FGHIRWY/LB1

Departure

Time 2026-05-08 05:43
Airport Salt Lake City International Airport (KSLC)

Arrival

Time 2026-05-08 07:05
Airport Los Angeles International Airport (KLAX)
Time Latitude Longitude Altitude Speed Heading
2026-05-08 05:24 40.78603 -111.98698 4225 ft 0 kts 175°
2026-05-08 05:32 40.78611 -111.98698 4225 ft 2 kts 175°
2026-05-08 05:32 40.78626 -111.98700 4225 ft 2 kts 175°
2026-05-08 05:32 40.78641 -111.98701 4225 ft 2 kts 175°
2026-05-08 05:33 40.78656 -111.98704 4225 ft 2 kts 175°
2026-05-08 05:33 40.78671 -111.98705 4225 ft 2 kts 183°
2026-05-08 05:33 40.78685 -111.98698 4225 ft 2 kts 224°
2026-05-08 05:33 40.78693 -111.98681 4225 ft 2 kts 258°
2026-05-08 05:34 40.78694 -111.98662 4225 ft 2 kts 268°
2026-05-08 05:34 40.78694 -111.98650 4225 ft 0 kts 262°
2026-05-08 05:37 40.78694 -111.98652 4228 ft 0 kts 263°
2026-05-08 05:37 40.78692 -111.98689 4228 ft 8 kts 265°
2026-05-08 05:37 40.78684 -111.98807 4228 ft 15 kts 265°
2026-05-08 05:37 40.78675 -111.98953 4227 ft 15 kts 265°
2026-05-08 05:38 40.78665 -111.99096 4226 ft 15 kts 265°
2026-05-08 05:38 40.78656 -111.99236 4226 ft 15 kts 265°
2026-05-08 05:38 40.78647 -111.99374 4226 ft 14 kts 264°
2026-05-08 05:38 40.78593 -111.99457 4225 ft 13 kts 180°
2026-05-08 05:39 40.78498 -111.99449 4225 ft 13 kts 174°
2026-05-08 05:39 40.78405 -111.99436 4226 ft 13 kts 175°
2026-05-08 05:39 40.78315 -111.99426 4226 ft 12 kts 175°
2026-05-08 05:39 40.78227 -111.99416 4226 ft 12 kts 175°
2026-05-08 05:40 40.78140 -111.99409 4226 ft 12 kts 182°
2026-05-08 05:40 40.78041 -111.99428 4226 ft 16 kts 191°
2026-05-08 05:40 40.77928 -111.99435 4226 ft 16 kts 175°
2026-05-08 05:40 40.77819 -111.99423 4227 ft 15 kts 175°
2026-05-08 05:41 40.77732 -111.99412 4227 ft 11 kts 175°
2026-05-08 05:41 40.77650 -111.99403 4227 ft 11 kts 174°
2026-05-08 05:41 40.77568 -111.99396 4227 ft 11 kts 186°
2026-05-08 05:41 40.77518 -111.99464 4227 ft 11 kts 262°
2026-05-08 05:42 40.77541 -111.99551 4227 ft 10 kts 341°
2026-05-08 05:42 40.77631 -111.99564 4227 ft 26 kts 355°
2026-05-08 05:42 40.78080 -111.99616 4226 ft 100 kts 355°
2026-05-08 05:42 40.78987 -111.99721 4225 ft 161 kts 355°
2026-05-08 05:43 40.80272 -111.99872 4398 ft 196 kts 354°
2026-05-08 05:43 40.81644 -112.00028 4985 ft 203 kts 355°
2026-05-08 05:43 40.83019 -112.00403 5630 ft 208 kts 331°
2026-05-08 05:43 40.84040 -112.01723 6212 ft 210 kts 297°
2026-05-08 05:44 40.84417 -112.03590 6477 ft 218 kts 275°
2026-05-08 05:44 40.84448 -112.05650 6726 ft 228 kts 259°
2026-05-08 05:44 40.83844 -112.07630 6963 ft 240 kts 240°
2026-05-08 05:44 40.82946 -112.09589 7130 ft 258 kts 238°
2026-05-08 05:45 40.81992 -112.11639 7399 ft 272 kts 239°
2026-05-08 05:45 40.81014 -112.13841 7745 ft 283 kts 241°
2026-05-08 05:45 40.80047 -112.16116 8276 ft 286 kts 242°
2026-05-08 05:45 40.79088 -112.18420 8831 ft 287 kts 242°
2026-05-08 05:46 40.78133 -112.20745 9369 ft 289 kts 242°
2026-05-08 05:46 40.77177 -112.23078 9965 ft 293 kts 242°
2026-05-08 05:46 40.76163 -112.25419 10498 ft 298 kts 234°
2026-05-08 05:46 40.74578 -112.27250 10732 ft 313 kts 208°
2026-05-08 05:47 40.72449 -112.28065 11033 ft 325 kts 189°
2026-05-08 05:47 40.70207 -112.28449 11502 ft 328 kts 190°
2026-05-08 05:47 40.67932 -112.28863 11941 ft 331 kts 191°
2026-05-08 05:47 40.65662 -112.29301 12389 ft 335 kts 192°
2026-05-08 05:48 40.63326 -112.29773 12853 ft 338 kts 193°
2026-05-08 05:48 40.60956 -112.30256 13351 ft 343 kts 193°
2026-05-08 05:48 40.58605 -112.30742 13934 ft 344 kts 194°
2026-05-08 05:48 40.56249 -112.31368 14437 ft 345 kts 198°
2026-05-08 05:49 40.53929 -112.32206 14850 ft 348 kts 201°
2026-05-08 05:49 40.51575 -112.33006 15265 ft 353 kts 197°
2026-05-08 05:49 40.49137 -112.33676 15684 ft 357 kts 196°
2026-05-08 05:49 40.46718 -112.34319 16112 ft 360 kts 195°
2026-05-08 05:50 40.44242 -112.34988 16536 ft 365 kts 195°
2026-05-08 05:50 40.41743 -112.35670 16972 ft 367 kts 195°
2026-05-08 05:50 40.39231 -112.36362 17389 ft 371 kts 195°
2026-05-08 05:50 40.36690 -112.37067 17819 ft 375 kts 195°
2026-05-08 05:51 40.34112 -112.37785 18265 ft 378 kts 195°
2026-05-08 05:51 40.31513 -112.38515 18735 ft 380 kts 195°
2026-05-08 05:51 40.28943 -112.39236 19170 ft 381 kts 195°
2026-05-08 05:51 40.26328 -112.39964 19569 ft 384 kts 195°
2026-05-08 05:52 40.23701 -112.40697 19976 ft 387 kts 195°
2026-05-08 05:52 40.21048 -112.41434 20368 ft 389 kts 195°
2026-05-08 05:52 40.18334 -112.42191 20773 ft 392 kts 195°
2026-05-08 05:52 40.15639 -112.42944 21189 ft 395 kts 195°
2026-05-08 05:53 40.12951 -112.43696 21599 ft 397 kts 194°
2026-05-08 05:53 40.10259 -112.44448 22020 ft 399 kts 194°
2026-05-08 05:53 40.07549 -112.45203 22429 ft 401 kts 194°
2026-05-08 05:53 40.04807 -112.45967 22822 ft 404 kts 194°
2026-05-08 05:54 40.02042 -112.46737 23210 ft 406 kts 194°
2026-05-08 05:54 39.99266 -112.47508 23599 ft 408 kts 194°
2026-05-08 05:54 39.96478 -112.48280 23953 ft 411 kts 194°
2026-05-08 05:54 39.93681 -112.49055 24286 ft 414 kts 194°
2026-05-08 05:55 39.90845 -112.49842 24633 ft 417 kts 194°
2026-05-08 05:55 39.88021 -112.50625 24969 ft 419 kts 194°
2026-05-08 05:55 39.85132 -112.51424 25295 ft 422 kts 194°
2026-05-08 05:55 39.82243 -112.52224 25592 ft 425 kts 194°
2026-05-08 05:56 39.79370 -112.53017 25887 ft 427 kts 194°
2026-05-08 05:56 39.76450 -112.53824 26194 ft 430 kts 194°
2026-05-08 05:56 39.73511 -112.54635 26497 ft 432 kts 194°
2026-05-08 05:56 39.70561 -112.55448 26821 ft 433 kts 195°
2026-05-08 05:57 39.67637 -112.56252 27112 ft 435 kts 195°
2026-05-08 05:57 39.64683 -112.57063 27365 ft 438 kts 195°
2026-05-08 05:57 39.61667 -112.57893 27639 ft 440 kts 195°
2026-05-08 05:57 39.58662 -112.58718 27919 ft 442 kts 195°
2026-05-08 05:58 39.55657 -112.59545 28201 ft 444 kts 195°
2026-05-08 05:58 39.52619 -112.60377 28468 ft 447 kts 195°
2026-05-08 05:58 39.49596 -112.61205 28728 ft 449 kts 195°
2026-05-08 05:58 39.46533 -112.62042 28980 ft 451 kts 195°
2026-05-08 05:59 39.43449 -112.62885 29218 ft 453 kts 195°
2026-05-08 05:59 39.40391 -112.63722 29472 ft 456 kts 195°
2026-05-08 05:59 39.37268 -112.64574 29734 ft 457 kts 195°
2026-05-08 05:59 39.34161 -112.65422 29959 ft 459 kts 194°
2026-05-08 06:00 39.30990 -112.66286 30192 ft 462 kts 194°
2026-05-08 06:00 39.27861 -112.67136 30443 ft 464 kts 194°
2026-05-08 06:00 39.24671 -112.68004 30702 ft 466 kts 194°
2026-05-08 06:00 39.21537 -112.68855 30952 ft 467 kts 194°
2026-05-08 06:01 39.18330 -112.69724 31188 ft 469 kts 194°
2026-05-08 06:01 39.15123 -112.70592 31420 ft 471 kts 194°
2026-05-08 06:01 39.11930 -112.71456 31671 ft 472 kts 194°
2026-05-08 06:01 39.08713 -112.72329 31888 ft 474 kts 194°
2026-05-08 06:02 39.05477 -112.73204 32111 ft 476 kts 194°
2026-05-08 06:02 39.02224 -112.74082 32422 ft 475 kts 194°
2026-05-08 06:02 38.99004 -112.74950 32773 ft 474 kts 194°
2026-05-08 06:02 38.95772 -112.75820 33102 ft 473 kts 194°
2026-05-08 06:03 38.92586 -112.76678 33413 ft 472 kts 194°
2026-05-08 06:03 38.89341 -112.77550 33731 ft 471 kts 194°
2026-05-08 06:03 38.86160 -112.78405 34024 ft 470 kts 194°
2026-05-08 06:03 38.82935 -112.79270 34346 ft 469 kts 194°
2026-05-08 06:04 38.79740 -112.80127 34644 ft 469 kts 194°
2026-05-08 06:04 38.76588 -112.80973 34895 ft 469 kts 194°
2026-05-08 06:04 38.73378 -112.81833 35117 ft 470 kts 194°
2026-05-08 06:04 38.70200 -112.82684 35351 ft 470 kts 194°
2026-05-08 06:05 38.66995 -112.83541 35594 ft 470 kts 194°
2026-05-08 06:05 38.63825 -112.84389 35793 ft 469 kts 194°
2026-05-08 06:05 38.60587 -112.85253 35962 ft 471 kts 194°
2026-05-08 06:05 38.57383 -112.86106 36150 ft 472 kts 194°
2026-05-08 06:06 38.54193 -112.86957 36209 ft 475 kts 194°
2026-05-08 06:06 38.47629 -112.88703 36178 ft 484 kts 194°
2026-05-08 06:07 38.41032 -112.90458 36175 ft 491 kts 194°
2026-05-08 06:07 38.34306 -112.92240 36165 ft 496 kts 194°
2026-05-08 06:08 38.27551 -112.94024 36190 ft 497 kts 194°
2026-05-08 06:08 38.20771 -112.95815 36215 ft 497 kts 194°
2026-05-08 06:09 38.13985 -112.97604 36232 ft 496 kts 194°
2026-05-08 06:09 38.07256 -112.99374 36239 ft 497 kts 194°
2026-05-08 06:10 38.00481 -113.01152 36248 ft 495 kts 194°
2026-05-08 06:10 37.93749 -113.02914 36248 ft 495 kts 194°
2026-05-08 06:11 37.86990 -113.04697 36243 ft 495 kts 195°
2026-05-08 06:11 37.80425 -113.07057 36220 ft 492 kts 202°
2026-05-08 06:12 37.74090 -113.10389 36168 ft 490 kts 209°
2026-05-08 06:12 37.68136 -113.14537 36145 ft 489 kts 213°
2026-05-08 06:13 37.62265 -113.18862 36165 ft 489 kts 213°
2026-05-08 06:13 37.56378 -113.23178 36194 ft 490 kts 213°
2026-05-08 06:14 37.50478 -113.27482 36220 ft 489 kts 213°
2026-05-08 06:14 37.44596 -113.31761 36222 ft 489 kts 213°
2026-05-08 06:15 37.38736 -113.36015 36212 ft 489 kts 213°
2026-05-08 06:15 37.32826 -113.40296 36200 ft 489 kts 213°
2026-05-08 06:16 37.26965 -113.44537 36193 ft 489 kts 213°
2026-05-08 06:16 37.21043 -113.48814 36162 ft 489 kts 213°
2026-05-08 06:17 37.12156 -113.55216 36099 ft 490 kts 213°
2026-05-08 06:17 37.06253 -113.59459 36069 ft 490 kts 212°
2026-05-08 06:18 37.00335 -113.63702 36060 ft 490 kts 213°
2026-05-08 06:18 36.94323 -113.68009 36075 ft 490 kts 212°
2026-05-08 06:19 36.88445 -113.72212 36116 ft 490 kts 212°
2026-05-08 06:19 36.82439 -113.76498 36155 ft 490 kts 212°
2026-05-08 06:20 36.76481 -113.80738 36128 ft 490 kts 212°
2026-05-08 06:20 36.70547 -113.84955 36110 ft 490 kts 212°
2026-05-08 06:21 36.64635 -113.89152 36083 ft 490 kts 212°
2026-05-08 06:21 36.58715 -113.93350 36078 ft 491 kts 212°
2026-05-08 06:22 36.52771 -113.97557 36064 ft 491 kts 211°
2026-05-08 06:22 36.46845 -114.01741 36055 ft 490 kts 211°
2026-05-08 06:23 36.40896 -114.05933 36041 ft 491 kts 211°
2026-05-08 06:23 36.34950 -114.10114 36029 ft 491 kts 211°
2026-05-08 06:24 36.28995 -114.14294 36029 ft 490 kts 211°
2026-05-08 06:24 36.23089 -114.18433 36040 ft 490 kts 211°
2026-05-08 06:25 36.17110 -114.22617 36042 ft 490 kts 211°
2026-05-08 06:25 36.11391 -114.27140 36027 ft 488 kts 218°
2026-05-08 06:26 36.06089 -114.32478 36004 ft 485 kts 225°
2026-05-08 06:26 36.01395 -114.38429 35985 ft 484 kts 231°
2026-05-08 06:27 35.96905 -114.44686 35973 ft 483 kts 231°
2026-05-08 06:27 35.92436 -114.50895 35983 ft 483 kts 231°
2026-05-08 06:28 35.87932 -114.57122 35975 ft 482 kts 231°
2026-05-08 06:28 35.83424 -114.63337 35979 ft 483 kts 231°
2026-05-08 06:29 35.78916 -114.69542 35971 ft 484 kts 230°
2026-05-08 06:29 35.74403 -114.75740 35962 ft 483 kts 230°
2026-05-08 06:30 35.69928 -114.81863 35969 ft 483 kts 230°
2026-05-08 06:30 35.65444 -114.87991 35972 ft 482 kts 230°
2026-05-08 06:31 35.60965 -114.94109 35999 ft 482 kts 230°
2026-05-08 06:31 35.56483 -115.00219 36044 ft 482 kts 230°
2026-05-08 06:32 35.51987 -115.06334 36069 ft 482 kts 230°
2026-05-08 06:32 35.47438 -115.12392 36080 ft 482 kts 229°
2026-05-08 06:33 35.42804 -115.18418 36086 ft 482 kts 229°
2026-05-08 06:33 35.38212 -115.24390 36096 ft 482 kts 229°
2026-05-08 06:34 35.33611 -115.30380 36114 ft 482 kts 229°
2026-05-08 06:34 35.28998 -115.36374 36122 ft 482 kts 229°
2026-05-08 06:35 35.24398 -115.42343 36125 ft 482 kts 229°
2026-05-08 06:35 35.19792 -115.48315 36121 ft 482 kts 229°
2026-05-08 06:36 35.15195 -115.54262 36107 ft 482 kts 229°
2026-05-08 06:36 35.10592 -115.60191 36092 ft 482 kts 228°
2026-05-08 06:37 35.05920 -115.66162 36063 ft 483 kts 227°
2026-05-08 06:37 35.01273 -115.72092 36027 ft 483 kts 227°
2026-05-08 06:38 34.96631 -115.78011 36008 ft 484 kts 227°
2026-05-08 06:38 34.91959 -115.83957 36009 ft 484 kts 227°
2026-05-08 06:39 34.87298 -115.89880 36029 ft 483 kts 227°
2026-05-08 06:39 34.82652 -115.95775 36030 ft 483 kts 227°
2026-05-08 06:40 34.78014 -116.01648 36032 ft 483 kts 227°
2026-05-08 06:40 34.73341 -116.07588 36032 ft 484 kts 228°
2026-05-08 06:41 34.68691 -116.13514 36036 ft 483 kts 227°
2026-05-08 06:41 34.66388 -116.16444 35900 ft 476 kts 227°
2026-05-08 06:41 34.64143 -116.19295 35495 ft 469 kts 228°
2026-05-08 06:42 34.61900 -116.22144 35082 ft 462 kts 228°
2026-05-08 06:42 34.59695 -116.24945 34558 ft 457 kts 228°
2026-05-08 06:42 34.57506 -116.27722 33830 ft 458 kts 227°
2026-05-08 06:42 34.55302 -116.30512 33034 ft 461 kts 227°
2026-05-08 06:43 34.53065 -116.33339 32304 ft 462 kts 227°
2026-05-08 06:43 34.50858 -116.36126 31825 ft 457 kts 227°
2026-05-08 06:43 34.48687 -116.38866 31378 ft 452 kts 227°
2026-05-08 06:43 34.46526 -116.41592 30888 ft 448 kts 227°
2026-05-08 06:44 34.44377 -116.44304 30387 ft 444 kts 228°
2026-05-08 06:44 34.42395 -116.47115 29887 ft 439 kts 234°
2026-05-08 06:44 34.40692 -116.50179 29402 ft 434 kts 241°
2026-05-08 06:44 34.39281 -116.53374 28905 ft 429 kts 245°
2026-05-08 06:45 34.37967 -116.56596 28397 ft 426 kts 246°
2026-05-08 06:45 34.36677 -116.59797 27885 ft 423 kts 246°
2026-05-08 06:45 34.35384 -116.62972 27144 ft 420 kts 246°
2026-05-08 06:45 34.34076 -116.66157 26634 ft 416 kts 245°
2026-05-08 06:46 34.32792 -116.69288 26353 ft 413 kts 246°
2026-05-08 06:46 34.31545 -116.72384 26249 ft 411 kts 246°
2026-05-08 06:46 34.30442 -116.75134 25836 ft 408 kts 246°
2026-05-08 06:46 34.29110 -116.78459 25275 ft 404 kts 246°
2026-05-08 06:47 34.27899 -116.81476 24756 ft 402 kts 246°
2026-05-08 06:47 34.26676 -116.84516 24233 ft 399 kts 246°
2026-05-08 06:47 34.25471 -116.87504 23757 ft 396 kts 246°
2026-05-08 06:47 34.24264 -116.90494 23286 ft 393 kts 246°
2026-05-08 06:48 34.23081 -116.93420 22825 ft 390 kts 245°
2026-05-08 06:48 34.21897 -116.96369 22289 ft 385 kts 247°
2026-05-08 06:48 34.20852 -116.99351 21428 ft 388 kts 251°
2026-05-08 06:48 34.19970 -117.02436 20491 ft 392 kts 253°
2026-05-08 06:49 34.19126 -117.05581 19760 ft 389 kts 254°
2026-05-08 06:49 34.18312 -117.08625 19161 ft 383 kts 254°
2026-05-08 06:49 34.17488 -117.11688 18648 ft 377 kts 254°
2026-05-08 06:49 34.16684 -117.14668 18194 ft 370 kts 254°
2026-05-08 06:50 34.15881 -117.17616 17778 ft 367 kts 253°
2026-05-08 06:50 34.15081 -117.20529 17391 ft 362 kts 253°
2026-05-08 06:50 34.14295 -117.23384 16991 ft 356 kts 253°
2026-05-08 06:50 34.13522 -117.26189 16566 ft 353 kts 253°
2026-05-08 06:51 34.12747 -117.28999 16118 ft 351 kts 253°
2026-05-08 06:51 34.11974 -117.31799 15681 ft 350 kts 253°
2026-05-08 06:51 34.11206 -117.34577 15221 ft 348 kts 253°
2026-05-08 06:51 34.10448 -117.37331 14761 ft 349 kts 254°
2026-05-08 06:52 34.09732 -117.40124 14292 ft 348 kts 255°
2026-05-08 06:52 34.09045 -117.42908 13826 ft 346 kts 255°
2026-05-08 06:52 34.08355 -117.45694 13361 ft 345 kts 255°
2026-05-08 06:52 34.07673 -117.48432 12917 ft 342 kts 255°
2026-05-08 06:53 34.06987 -117.51166 12484 ft 339 kts 254°
2026-05-08 06:53 34.06289 -117.53899 12066 ft 337 kts 254°
2026-05-08 06:53 34.05601 -117.56585 11654 ft 334 kts 254°
2026-05-08 06:53 34.04917 -117.59251 11247 ft 331 kts 254°
2026-05-08 06:54 34.04242 -117.61886 10843 ft 328 kts 254°
2026-05-08 06:54 34.03565 -117.64527 10437 ft 326 kts 254°
2026-05-08 06:54 34.02900 -117.67117 10131 ft 319 kts 253°
2026-05-08 06:54 34.02321 -117.69660 10014 ft 305 kts 258°
2026-05-08 06:55 34.01969 -117.72114 9989 ft 295 kts 263°
2026-05-08 06:55 34.01724 -117.74575 9797 ft 291 kts 264°
2026-05-08 06:55 34.01501 -117.76956 9351 ft 288 kts 264°
2026-05-08 06:55 34.01273 -117.79366 8843 ft 286 kts 264°
2026-05-08 06:56 34.01049 -117.81708 8430 ft 281 kts 264°
2026-05-08 06:56 34.00825 -117.84011 8067 ft 275 kts 264°
2026-05-08 06:56 34.00605 -117.86273 7722 ft 273 kts 264°
2026-05-08 06:56 34.00386 -117.88507 7423 ft 268 kts 264°
2026-05-08 06:57 34.00181 -117.90717 7132 ft 264 kts 266°
2026-05-08 06:57 34.00033 -117.92888 6836 ft 260 kts 266°
2026-05-08 06:57 33.99878 -117.95060 6534 ft 255 kts 265°
2026-05-08 06:57 33.99702 -117.97197 6233 ft 252 kts 265°
2026-05-08 06:58 33.99511 -117.99270 5941 ft 248 kts 264°
2026-05-08 06:58 33.99307 -118.01337 5613 ft 247 kts 264°
2026-05-08 06:58 33.99094 -118.03374 5302 ft 244 kts 264°
2026-05-08 06:58 33.98875 -118.05408 5016 ft 244 kts 263°
2026-05-08 06:59 33.98656 -118.07423 4743 ft 243 kts 263°
2026-05-08 06:59 33.98433 -118.09465 4470 ft 242 kts 263°
2026-05-08 06:59 33.98209 -118.11503 4201 ft 242 kts 263°
2026-05-08 06:59 33.97993 -118.13493 4016 ft 241 kts 263°
2026-05-08 07:00 33.97779 -118.15482 3980 ft 233 kts 263°
2026-05-08 07:00 33.97577 -118.17388 3777 ft 227 kts 263°
2026-05-08 07:00 33.97380 -118.19263 3481 ft 225 kts 263°
2026-05-08 07:00 33.97183 -118.21137 3185 ft 224 kts 263°
2026-05-08 07:01 33.96988 -118.22983 2894 ft 222 kts 263°
2026-05-08 07:01 33.96801 -118.24783 2694 ft 208 kts 263°
2026-05-08 07:01 33.96627 -118.26464 2389 ft 197 kts 263°
2026-05-08 07:01 33.96465 -118.28028 2119 ft 181 kts 263°
2026-05-08 07:02 33.96314 -118.29498 1848 ft 167 kts 263°
2026-05-08 07:02 33.96176 -118.30810 1601 ft 152 kts 263°
2026-05-08 07:02 33.96048 -118.32049 1404 ft 146 kts 263°
2026-05-08 07:02 33.95922 -118.33263 1238 ft 145 kts 263°
2026-05-08 07:03 33.95798 -118.34470 1062 ft 144 kts 263°
2026-05-08 07:03 33.95750 -118.34931 993 ft 144 kts 263°
2026-05-08 07:03 33.95707 -118.35353 929 ft 144 kts 263°
2026-05-08 07:04 33.95585 -118.36543 742 ft 143 kts 262°
2026-05-08 07:04 33.95466 -118.37728 551 ft 143 kts 263°
2026-05-08 07:04 33.95347 -118.38912 369 ft 142 kts 262°
2026-05-08 07:04 33.95222 -118.40089 173 ft 141 kts 262°
2026-05-08 07:05 33.95106 -118.41211 124 ft 121 kts 263°
2026-05-08 07:05 33.95025 -118.42010 121 ft 72 kts 263°
2026-05-08 07:05 33.94954 -118.42344 118 ft 24 kts 239°
2026-05-08 07:05 33.94860 -118.42474 116 ft 17 kts 220°
2026-05-08 07:06 33.94744 -118.42487 115 ft 12 kts 173°
2026-05-08 07:06 33.94676 -118.42463 115 ft 10 kts 134°
2026-05-08 07:06 33.94669 -118.42381 115 ft 10 kts 84°
2026-05-08 07:06 33.94678 -118.42293 116 ft 10 kts 83°
2026-05-08 07:07 33.94687 -118.42208 117 ft 10 kts 84°
2026-05-08 07:07 33.94695 -118.42125 118 ft 10 kts 82°
2026-05-08 07:07 33.94704 -118.42042 119 ft 9 kts 83°
2026-05-08 07:07 33.94714 -118.41942 120 ft 14 kts 83°
2026-05-08 07:08 33.94726 -118.41825 121 ft 13 kts 83°
2026-05-08 07:08 33.94737 -118.41708 121 ft 13 kts 84°
2026-05-08 07:08 33.94750 -118.41593 122 ft 16 kts 83°
2026-05-08 07:08 33.94767 -118.41430 123 ft 19 kts 79°
2026-05-08 07:09 33.94795 -118.41278 123 ft 18 kts 83°
2026-05-08 07:09 33.94811 -118.41130 124 ft 17 kts 83°
2026-05-08 07:09 33.94825 -118.40986 124 ft 17 kts 84°
2026-05-08 07:09 33.94840 -118.40842 123 ft 17 kts 83°
2026-05-08 07:10 33.94855 -118.40699 123 ft 13 kts 83°
2026-05-08 07:10 33.94854 -118.40613 122 ft 8 kts 133°
2026-05-08 07:10 33.94793 -118.40588 122 ft 9 kts 171°
2026-05-08 07:10 33.94722 -118.40578 122 ft 10 kts 173°
2026-05-08 07:11 33.94685 -118.40584 123 ft 4 kts 224°
2026-05-08 07:11 33.94677 -118.40622 123 ft 3 kts 263°
2026-05-08 07:11 33.94675 -118.40642 122 ft 1 kts 263°
2026-05-08 07:11 33.94674 -118.40645 122 ft 0 kts 263°